Bigfork, MN

9:24 AM CDT on May 20, 2018 (GMT -0500)
Bigfork Municipal

Weather History for KFOZ - May, 2014

Change the Weather History Date:

Wednesday, May 14, 2014

  Actual Average (WUND) Record (WUND)
Temperature  
Mean Temperature 37 °F -  
Max Temperature 42 °F - - (-1)
Min Temperature 32 °F - - (-1)
Degree Days  
Heating Degree Days 28    
Moisture  
Dew Point 30 °F    
Average Humidity 72    
Maximum Humidity 93    
Minimum Humidity 57    
Precipitation  
Precipitation 0.00 in - - ()
Sea Level Pressure  
Sea Level Pressure 30.19 in    
Wind  
Wind Speed 4 mph (WNW)    
Max Wind Speed 9 mph    
Max Gust Speed 16 mph    
Visibility 10 miles    
Events Rain , Snow    
Averages and records for this station are not official NWS values.
T = Trace of Precipitation, MM = Missing Value Source: NWS Daily Summary

Daily Weather History Graph

Daily Weather History Graph

Search for Another Location

Airport or City:

Astronomy

May. 14, 2014 Rise Set
Actual Time 5:37 AM CDT 8:44 PM CDT
Civil Twilight 5:01 AM CDT 9:21 PM CDT
Nautical Twilight 4:13 AM CDT 10:09 PM CDT
Astronomical Twilight 3:15 AM CDT 11:09 PM CDT
Moon 8:49 PM CDT (5/14) 5:41 AM CDT (5/14)
Length of Visible Light 16h 20m
Length of Day
15h 06m
Full, 100% of the Moon is Illuminated
May 14
Full
May 14
Full
May 21
Last Quarter
May 28
New
Jun 5
First Quarter

Hourly Weather History & Observations

Time (CDT) Temp. Windchill Dew Point Humidity Pressure Visibility Wind Dir Wind Speed Gust Speed Precip Events Conditions
12:22 AM 37.4 °F 33.8 °F 33.8 °F 87% 30.08 in 10.0 mi WSW 4.6 mph - N/A   Clear
12:34 AM 37.4 °F 33.8 °F 33.8 °F 87% 30.08 in 10.0 mi West 4.6 mph - N/A   Clear
12:56 AM 37.4 °F 34.9 °F 33.8 °F 87% 30.08 in 10.0 mi WSW 3.5 mph - N/A   Clear
1:14 AM 37.4 °F 34.9 °F 33.8 °F 87% 30.08 in 10.0 mi WSW 3.5 mph - N/A   Clear
1:38 AM 37.4 °F 34.9 °F 33.8 °F 87% 30.08 in 10.0 mi WSW 3.5 mph - N/A   Clear
1:53 AM 35.6 °F 32.8 °F 33.8 °F 93% 30.09 in 10.0 mi WSW 3.5 mph - N/A   Clear
2:14 AM 35.6 °F - 32.0 °F 87% 30.09 in 10.0 mi Calm Calm - N/A   Clear
2:38 AM 33.8 °F - 30.2 °F 87% 30.09 in 10.0 mi Calm Calm - N/A   Clear
2:55 AM 33.8 °F - 30.2 °F 87% 30.10 in 10.0 mi Calm Calm - N/A   Clear
3:13 AM 33.8 °F - 30.2 °F 87% 30.10 in 10.0 mi Calm Calm - N/A   Clear
3:34 AM 32.0 °F 28.7 °F 30.2 °F 93% 30.10 in 10.0 mi WSW 3.5 mph - N/A   Clear
3:41 AM 32.0 °F 28.7 °F 30.2 °F 93% 30.10 in 10.0 mi WSW 3.5 mph - N/A   Clear
4:16 AM 33.8 °F 30.8 °F 32.0 °F 93% 30.11 in 10.0 mi West 3.5 mph - N/A   Mostly Cloudy
4:34 AM 33.8 °F 30.8 °F 32.0 °F 93% 30.11 in 10.0 mi WSW 3.5 mph - N/A   Scattered Clouds
4:41 AM 33.8 °F 30.8 °F 32.0 °F 93% 30.12 in 10.0 mi WSW 3.5 mph - N/A   Clear
5:16 AM 33.8 °F 30.8 °F 30.2 °F 87% 30.13 in 10.0 mi WSW 3.5 mph - N/A   Clear
5:41 AM 33.8 °F 29.6 °F 30.2 °F 87% 30.13 in 10.0 mi WSW 4.6 mph - N/A   Mostly Cloudy
5:54 AM 33.8 °F 29.6 °F 32.0 °F 93% 30.14 in 10.0 mi West 4.6 mph - N/A   Overcast
6:01 AM 33.8 °F 30.8 °F 32.0 °F 93% 30.14 in 10.0 mi West 3.5 mph - N/A   Overcast
6:39 AM 33.8 °F 28.6 °F 32.0 °F 93% 30.15 in 4.0 mi WNW 5.8 mph - N/A Snow Light Snow
6:56 AM 35.6 °F 32.8 °F 32.0 °F 87% 30.16 in 10.0 mi West 3.5 mph - N/A   Overcast
7:13 AM 35.6 °F 32.8 °F 32.0 °F 87% 30.16 in 10.0 mi West 3.5 mph - N/A   Mostly Cloudy
7:33 AM 37.4 °F 32.1 °F 30.2 °F 75% 30.16 in 10.0 mi West 6.9 mph - N/A   Scattered Clouds
7:53 AM 37.4 °F 34.9 °F 30.2 °F 75% 30.17 in 10.0 mi West 3.5 mph - N/A   Mostly Cloudy
8:13 AM 37.4 °F 33.8 °F 30.2 °F 75% 30.17 in 10.0 mi WNW 4.6 mph - N/A   Overcast
8:36 AM 37.4 °F 32.1 °F 30.2 °F 75% 30.18 in 10.0 mi West 6.9 mph - N/A   Overcast
8:53 AM 39.2 °F 33.0 °F 28.4 °F 65% 30.18 in 10.0 mi NW 9.2 mph 16.1 mph N/A   Mostly Cloudy
9:36 AM 39.2 °F 35.0 °F 28.4 °F 65% 30.19 in 10.0 mi West 5.8 mph - N/A   Mostly Cloudy
10:33 AM 37.4 °F 32.8 °F 28.4 °F 70% 30.21 in 10.0 mi West 5.8 mph - N/A   Overcast
10:53 AM 37.4 °F 32.1 °F 28.4 °F 70% 30.21 in 10.0 mi WNW 6.9 mph - N/A   Overcast
11:14 AM 39.2 °F 33.0 °F 28.4 °F 65% 30.22 in 10.0 mi West 9.2 mph - N/A   Overcast
11:33 AM 39.2 °F 35.9 °F 28.4 °F 65% 30.22 in 10.0 mi NW 4.6 mph - N/A   Overcast
11:53 AM 41.0 °F 37.1 °F 28.4 °F 61% 30.21 in 10.0 mi NW 5.8 mph - N/A   Overcast
12:14 PM 41.0 °F 39.0 °F 26.6 °F 57% 30.22 in 10.0 mi West 3.5 mph - N/A   Overcast
12:33 PM 39.2 °F 35.0 °F 28.4 °F 65% 30.22 in 10.0 mi WNW 5.8 mph - N/A   Overcast
12:53 PM 39.2 °F 34.2 °F 28.4 °F 65% 30.23 in 10.0 mi NW 6.9 mph - N/A   Overcast
1:13 PM 41.0 °F 37.1 °F 28.4 °F 61% 30.23 in 10.0 mi NNW 5.8 mph - N/A   Overcast
1:33 PM 42.8 °F 41.1 °F 28.4 °F 57% 30.24 in 10.0 mi NW 3.5 mph - N/A   Overcast
1:53 PM 41.0 °F 35.2 °F 28.4 °F 61% 30.24 in 10.0 mi WNW 9.2 mph - N/A   Overcast
2:13 PM 42.8 °F 40.1 °F 28.4 °F 57% 30.23 in 10.0 mi WNW 4.6 mph - N/A   Overcast
2:33 PM 42.8 °F 39.3 °F 28.4 °F 57% 30.24 in 10.0 mi WNW 5.8 mph - N/A   Overcast
2:53 PM 41.0 °F 37.1 °F 28.4 °F 61% 30.24 in 10.0 mi NW 5.8 mph - N/A   Overcast
3:14 PM 42.8 °F 40.1 °F 28.4 °F 57% 30.25 in 10.0 mi NW 4.6 mph - N/A   Overcast
3:33 PM 42.8 °F 39.3 °F 28.4 °F 57% 30.25 in 10.0 mi West 5.8 mph - N/A   Overcast
4:13 PM 42.8 °F 40.1 °F 28.4 °F 57% 30.24 in 10.0 mi NW 4.6 mph - N/A   Overcast
4:33 PM 42.8 °F 39.3 °F 28.4 °F 57% 30.25 in 10.0 mi NW 5.8 mph - N/A   Overcast
4:53 PM 42.8 °F 39.3 °F 28.4 °F 57% 30.24 in 10.0 mi NW 5.8 mph - N/A   Overcast
5:15 PM 42.8 °F - 28.4 °F 57% 30.24 in 10.0 mi Calm Calm - N/A   Overcast
5:34 PM 42.8 °F 41.1 °F 28.4 °F 57% 30.25 in 10.0 mi WNW 3.5 mph - N/A   Overcast
5:53 PM 41.0 °F - 30.2 °F 65% 30.25 in 10.0 mi Calm Calm - N/A   Overcast
6:14 PM 42.8 °F 41.1 °F 30.2 °F 61% 30.25 in 10.0 mi NW 3.5 mph - N/A   Overcast
6:33 PM 41.0 °F 39.0 °F 28.4 °F 61% 30.25 in 10.0 mi NW 3.5 mph - N/A Rain Light Rain
6:53 PM 39.2 °F 35.9 °F 30.2 °F 70% 30.25 in 10.0 mi North 4.6 mph - N/A   Overcast
7:14 PM 39.2 °F - 30.2 °F 70% 30.25 in 10.0 mi Calm Calm - N/A   Overcast
7:33 PM 39.2 °F 37.0 °F 30.2 °F 70% 30.25 in 10.0 mi WNW 3.5 mph - N/A   Overcast
7:53 PM 39.2 °F - 32.0 °F 75% 30.25 in 10.0 mi Calm Calm - N/A   Overcast
8:14 PM 39.2 °F 34.2 °F 28.4 °F 65% 30.25 in 10.0 mi NNW 6.9 mph - N/A   Overcast
8:55 PM 39.2 °F 35.0 °F 28.4 °F 65% 30.26 in 10.0 mi NNW 5.8 mph - N/A   Overcast
9:13 PM 39.2 °F 37.0 °F 28.4 °F 65% 30.26 in 10.0 mi NNW 3.5 mph - N/A   Overcast
9:34 PM 39.2 °F 35.9 °F 26.6 °F 61% 30.27 in 10.0 mi NNW 4.6 mph - N/A   Overcast
9:55 PM 39.2 °F 37.0 °F 26.6 °F 61% 30.27 in 10.0 mi NW 3.5 mph - N/A   Overcast
10:15 PM 37.4 °F - 26.6 °F 65% 30.28 in 10.0 mi Calm Calm - N/A   Overcast
10:35 PM 37.4 °F 33.8 °F 26.6 °F 65% 30.28 in 10.0 mi North 4.6 mph - N/A   Overcast
10:55 PM 37.4 °F 34.9 °F 26.6 °F 65% 30.28 in 10.0 mi North 3.5 mph - N/A   Overcast
11:01 PM 37.4 °F 34.9 °F 26.6 °F 65% 30.27 in 10.0 mi North 3.5 mph - N/A   Overcast
11:33 PM 37.4 °F - 26.6 °F 65% 30.27 in 10.0 mi Calm Calm - N/A   Overcast
11:53 PM 37.4 °F - 26.6 °F 65% 30.27 in 10.0 mi Calm Calm - N/A   Overcast